This demonstration page uses our WeatherBlox Daily Observations layout. Learn more.

39.08367, -84.50855

Hourly Observations for October 11, 2019

Temp ( °F °C ) Dew Point ( °F °C ) Humidity (%) Winds ( mph kmh ) Pressure ( in mb ) Visibility ( mi km ) Precip ( " mm )
12:53 am 00:53 Mostly Cloudy 61 16.1 59 15 93 93 Calm 30.07 1018 10 16.0934 0 0
1:53 am 01:53 Cloudy 61 16.1 60 15.6 97 97 Calm 30.06 1018 10 16.0934 0 0
2:53 am 02:53 Cloudy 61 16.1 60 15.6 97 97 Calm 30.05 1018 10 16.0934 0 0
3:53 am 03:53 Partly Cloudy 60 15.6 59 15 96 96 Calm 30.03 1017 9 14.48406 0 0
4:53 am 04:53 Cloudy 61 16.1 60 15.6 97 97 Calm 30.04 1017 10 16.0934 0 0
5:53 am 05:53 Mostly Clear 60 15.6 59 15 96 96 Calm 30.04 1017 10 16.0934 0 0
6:53 am 06:53 Cloudy 61 16.1 59 15 93 93 Calm 30.04 1017 10 16.0934 0 0
7:53 am 07:53 Mostly Cloudy 62 16.7 60 15.6 93 93 Calm 30.04 1017 10 16.0934 0 0
8:53 am 08:53 Cloudy 64 17.8 60 15.6 87 87 SSW 5 7 30.05 1018 10 16.0934 0 0
9:53 am 09:53 Mostly Cloudy 68 20 60 15.6 76 76 S 9 15 30.05 1018 10 16.0934 0 0
10:53 am 10:53 Cloudy 69 20.6 59 15 70 70 SSW 6 9 30.05 1018 10 16.0934 0 0
11:53 am 11:53 Partly Cloudy 72 22.2 61 16.1 68 68 SSW 8 13 30.04 1017 10 16.0934 0.01 0.254
12:53 pm 12:53 Partly Cloudy 73 22.8 60 15.6 64 64 S 8 13 30.02 1017 10 16.0934 0 0
1:53 pm 13:53 Partly Cloudy 75 23.9 60 15.6 60 60 SW 15 24 30 1016 10 16.0934 0 0
2:53 pm 14:53 Cloudy with Light Rain 71 21.7 61 16.1 71 71 WSW 22 35 30.01 1016 6 9.65604 0.001 0.001
3:53 pm 15:53 Cloudy 69 20.6 64 17.8 84 84 SSW 5 7 29.96 1015 10 16.0934 0.02 0.508
4:53 pm 16:53 Cloudy 72 22.2 64 17.8 76 76 SSW 5 7 29.95 1014 10 16.0934 0 0
5:53 pm 17:53 Mostly Cloudy 72 22.2 59 15 64 64 S 7 11 29.93 1013 10 16.0934 0.001 0.001
6:53 pm 18:53 Cloudy 70 21.1 61 16.1 73 73 SW 3 6 29.91 1013 10 16.0934 0.001 0.001
7:53 pm 19:53 Cloudy 70 21.1 61 16.1 73 73 SW 3 6 29.92 1013 10 16.0934 0.001 0.001
8:53 pm 20:53 Cloudy with Light Rain 71 21.7 60 15.6 68 68 WSW 13 20 29.93 1014 10 16.0934 0.001 0.001
9:53 pm 21:53 Cloudy with Light Rain 64 17.8 60 15.6 87 87 WNW 20 31 29.96 1015 8 12.87472 0.001 0.001
9:58 pm 21:58 Cloudy with Light Rain 62 16.7 59 15 90 90 WNW 18 30 29.98 1015 8 12.87472 0.001 0.001
10:06 pm 22:06 Cloudy with Light Rain 58 14.4 55 12.8 90 90 WNW 20 31 30 1016 10 16.0934 0.001 0.001
10:18 pm 22:18 Cloudy with Light Rain 57 13.9 54 12.2 90 90 NW 10 17 30.02 1017 10 16.0934 0.001 0.001
10:53 pm 22:53 Cloudy with Light Rain 53 11.7 50 10 89 89 NW 9 15 30.04 1017 7 11.26538 0.02 0.508
11:39 pm 23:39 Cloudy with Light Rain 49 9.4 46 7.8 90 90 NNW 16 26 30.08 1019 5 8.0467 0.01 0.254
11:53 pm 23:53 Cloudy with Light Rain 48 8.9 45 7.2 89 89 NNW 13 20 30.07 1018 4 6.43736 0.02 0.508

Powered by AerisWeather